Ephrata, WA
on Friday, December 7, 2012

Friday
Previous Day Next Day
Daily Summary
 ActualAverageRecord
Temperature
Mean Temperature °F 29°F  
Max Temperature 47°F 35°F 51°F (1973)
Min Temperature 27°F 22°F -1°F (2013)
Degree Days
Heating Degree Days 28 36  
Month to date heating degree days 166 247  
Since 1 July heating degree days 1426 1666  
Cooling Degree Days 0 0  
Month to date cooling degree days 0 0  
Year to date cooling degree days 837 772  
Moisture
Dew Point 28°F   
Average Humidity 68    
Maximum Humidity 92    
Minimum Humidity 44    
Precipitation
Precipitation 0.00 in 0.04 in 0.35 in (1996)
Month to date precipitation 0.56 0.29  
Year to date precipitation 7.51 6.90  
Wind
Wind Speed 12 mph   
Max Wind Speed 29 mph   
Max Gust Speed 36 mph   
Visibility 10 miles   
Events     

Key: T is trace of precipitation, MM is missing value
Source: NWS Daily Summary
Time(PST)TemperatureDew PointHumidity Pressure Visibility Wind DirectionWind SpeedGust SpeedPrecipitationEvents Conditions
12:53 AM 30.0°F 28.0°F 92% 30.04 in 10.0 miles South 3.5 mph - N/A   Clear
1:53 AM 30.0°F 28.0°F 92% 30.04 in 10.0 miles Calm Calm - N/A   Clear
2:53 AM 28.0°F 26.1°F 92% 30.04 in 10.0 miles Calm Calm - N/A   Clear
3:53 AM 28.0°F 26.1°F 92% 30.02 in 10.0 miles NNW 4.6 mph - N/A   Clear
4:53 AM 32.0°F 28.0°F 85% 30.00 in 10.0 miles South 10.4 mph - N/A   Scattered Clouds
5:53 AM 32.0°F 28.0°F 85% 29.98 in 10.0 miles SSW 11.5 mph - N/A   Clear
6:53 AM 32.0°F 28.0°F 85% 29.97 in 10.0 miles NNE 5.8 mph - N/A   Clear
7:53 AM 28.9°F 27.0°F 92% 29.95 in 10.0 miles NNW 3.5 mph - N/A   Partly Cloudy
8:53 AM 34.0°F 30.0°F 85% 29.93 in 10.0 miles Calm Calm - N/A   Partly Cloudy
9:53 AM 36.0°F 30.9°F 82% 29.91 in 10.0 miles Calm Calm - N/A   Clear
10:53 AM 37.9°F 32.0°F 79% 29.88 in 10.0 miles SE 4.6 mph - N/A   Clear
11:53 AM 41.0°F 34.0°F 76% 29.83 in 10.0 miles SW 9.2 mph - N/A   Clear
12:53 PM 45.0°F 33.1°F 63% 29.82 in 10.0 miles SW 18.4 mph - N/A   Clear
1:51 PM 42.8°F 33.8°F 70% 29.79 in 10.0 miles NNW 11.5 mph - N/A   Clear
1:53 PM 43.0°F 33.1°F 68% 29.82 in 10.0 miles NNW 11.5 mph - N/A   Clear
2:53 PM 39.9°F 32.0°F 73% 29.84 in 10.0 miles Variable 4.6 mph - N/A   Clear
3:53 PM 39.9°F 32.0°F 73% 29.86 in 10.0 miles WNW 20.7 mph 26.5 mph N/A   Mostly Cloudy
4:53 PM 39.0°F 28.0°F 65% 29.86 in 10.0 miles West 19.6 mph 25.3 mph N/A   Clear
5:53 PM 37.9°F 25.0°F 60% 29.89 in 10.0 miles West 20.7 mph - N/A   Clear
6:53 PM 39.0°F 19.9°F 46% 29.90 in 10.0 miles West 25.3 mph - N/A   Clear
7:53 PM 37.9°F 21.0°F 51% 29.94 in 10.0 miles West 26.5 mph 32.2 mph N/A   Clear
8:53 PM 37.0°F 21.0°F 52% 29.96 in 10.0 miles West 19.6 mph - N/A   Clear
9:53 PM 37.0°F 21.9°F 54% 29.97 in 10.0 miles West 27.6 mph - N/A   Clear
10:53 PM 37.0°F 23.0°F 57% 30.00 in 10.0 miles WNW 25.3 mph 32.2 mph N/A   Clear
11:53 PM 36.0°F 21.9°F 57% 30.01 in 10.0 miles WNW 19.6 mph 25.3 mph N/A   Clear
Moon Phase
Dec. 07 Dec. 13 Dec. 20 Dec. 28 Jan. 04
Sunrise:07:31 AM (PST) Moon Rise:12:33 AM (PST)12/7
Sunset:04:07 PM (PST) Moon Set:12:27 PM (PST)12/7

Copyright © 2014 The Weather Underground, Inc.